Time,TemperatureF,DewpointF,PressureIn,WindDirection,WindDirectionDegrees,WindSpeedMPH,WindSpeedGustMPH,Humidity,HourlyPrecipIn,Conditions,Clouds,dailyrainin,SoftwareType,DateUTC
2013-09-09 00:00:00,52.7,48.6,30.00,SW,221,0.0,7.0,86,0.00,SCT,,0.00,WeatherDisplay:10.37,2013-09-08 23:00:00,
2013-09-09 00:10:00,52.7,48.6,30.00,WSW,247,0.0,6.0,86,0.00,SCT,,0.00,WeatherDisplay:10.37,2013-09-08 23:10:00,
2013-09-09 00:18:00,52.5,48.5,30.00,WSW,246,0.0,6.0,86,0.00,SCT,,0.00,WeatherDisplay:10.37,2013-09-08 23:18:00,
2013-09-09 00:30:00,52.2,48.4,30.00,SW,229,5.0,9.0,87,0.00,SCT,,0.00,WeatherDisplay:10.37,2013-09-08 23:30:00,
2013-09-09 00:40:00,52.0,48.2,30.00,SW,234,6.0,9.0,87,0.00,SCT,,0.00,WeatherDisplay:10.37,2013-09-08 23:40:00,
2013-09-09 00:50:00,51.8,48.1,30.00,SSW,213,5.0,8.0,87,0.00,SCT,,0.00,WeatherDisplay:10.37,2013-09-08 23:50:00,
2013-09-09 01:00:00,51.4,48.0,30.00,SW,229,3.0,7.0,88,0.00,SCT,,0.00,WeatherDisplay:10.37,2013-09-09 00:00:00,
2013-09-09 01:10:00,51.4,48.0,30.00,SW,231,0.0,9.0,88,0.00,SCT,,0.00,WeatherDisplay:10.37,2013-09-09 00:10:00,
2013-09-09 01:20:00,51.3,47.8,30.00,SW,217,0.0,7.0,88,0.00,SCT,,0.00,WeatherDisplay:10.37,2013-09-09 00:20:00,
2013-09-09 01:30:00,51.1,47.6,30.00,SSW,212,0.0,7.0,88,0.00,SCT,,0.00,WeatherDisplay:10.37,2013-09-09 00:30:00,
2013-09-09 01:40:00,50.9,47.5,30.00,SSW,213,0.0,5.0,88,0.00,SCT,,0.00,WeatherDisplay:10.37,2013-09-09 00:40:00,
2013-09-09 01:50:00,50.9,47.5,30.00,SW,214,0.0,6.0,88,0.00,SCT,,0.00,WeatherDisplay:10.37,2013-09-09 00:50:00,
2013-09-09 02:00:00,50.7,47.6,30.00,SW,215,0.0,6.0,89,0.00,SCT,,0.00,WeatherDisplay:10.37,2013-09-09 01:00:00,
2013-09-09 02:10:00,50.5,47.4,30.00,SSW,200,0.0,7.0,89,0.00,SCT,,0.00,WeatherDisplay:10.37,2013-09-09 01:10:00,
2013-09-09 02:20:00,50.4,47.3,30.00,SSW,198,0.0,5.0,89,0.00,SCT,,0.00,WeatherDisplay:10.37,2013-09-09 01:20:00,
2013-09-09 02:30:00,50.2,47.1,30.00,SSW,198,0.0,5.0,89,0.00,SCT,,0.00,WeatherDisplay:10.37,2013-09-09 01:30:00,
2013-09-09 02:40:00,50.0,46.9,30.00,SSW,198,0.0,5.0,89,0.00,SCT,,0.00,WeatherDisplay:10.37,2013-09-09 01:40:00,
2013-09-09 02:50:00,49.8,46.7,30.00,SSW,199,0.0,6.0,89,0.00,SCT,,0.00,WeatherDisplay:10.37,2013-09-09 01:50:00,
2013-09-09 03:00:00,49.8,47.0,30.00,SSW,199,0.0,5.0,90,0.00,SCT,,0.00,WeatherDisplay:10.37,2013-09-09 02:00:00,
2013-09-09 03:10:00,49.8,47.0,30.00,SSW,199,0.0,5.0,90,0.00,SCT,,0.00,WeatherDisplay:10.37,2013-09-09 02:10:00,
2013-09-09 03:20:00,49.8,47.0,30.00,SSW,199,0.0,0.0,90,0.00,SCT,,0.00,WeatherDisplay:10.37,2013-09-09 02:20:00,
2013-09-09 03:30:00,49.8,47.0,30.00,SSW,199,0.0,0.0,90,0.00,SCT,,0.00,WeatherDisplay:10.37,2013-09-09 02:30:00,
2013-09-09 03:40:00,49.6,46.8,30.00,SSW,199,0.0,0.0,90,0.00,SCT,,0.00,WeatherDisplay:10.37,2013-09-09 02:40:00,
2013-09-09 03:50:00,49.6,46.8,30.00,SSW,199,0.0,0.0,90,0.00,SCT,,0.00,WeatherDisplay:10.37,2013-09-09 02:50:00,
2013-09-09 04:00:00,49.6,46.8,30.00,SSW,199,0.0,0.0,90,0.00,SCT,,0.00,WeatherDisplay:10.37,2013-09-09 03:00:00,
2013-09-09 04:10:00,49.5,46.6,30.00,SSW,199,0.0,0.0,90,0.00,SCT,,0.00,WeatherDisplay:10.37,2013-09-09 03:10:00,
2013-09-09 04:20:00,49.5,46.9,30.00,SSW,199,0.0,0.0,91,0.00,SCT,,0.00,WeatherDisplay:10.37,2013-09-09 03:20:00,
2013-09-09 04:30:00,49.6,47.1,30.00,SSW,199,0.0,0.0,91,0.00,SCT,,0.00,WeatherDisplay:10.37,2013-09-09 03:30:00,
2013-09-09 04:40:00,49.6,47.1,30.00,SSW,199,0.0,0.0,91,0.00,SCT,,0.00,WeatherDisplay:10.37,2013-09-09 03:40:00,
2013-09-09 04:50:00,49.6,47.1,29.98,SSW,199,0.0,0.0,91,0.00,SCT,,0.00,WeatherDisplay:10.37,2013-09-09 03:50:00,
2013-09-09 05:00:00,49.6,47.1,29.97,SSW,199,0.0,0.0,91,0.00,SCT,,0.00,WeatherDisplay:10.37,2013-09-09 04:00:00,
2013-09-09 05:10:00,49.8,47.6,29.97,SSW,199,0.0,0.0,92,0.00,SCT,,0.00,WeatherDisplay:10.37,2013-09-09 04:10:00,
2013-09-09 05:20:00,49.8,47.6,29.97,SSW,199,0.0,0.0,92,0.00,SCT,,0.00,WeatherDisplay:10.37,2013-09-09 04:20:00,
2013-09-09 05:30:00,49.8,47.6,29.97,SSW,198,0.0,0.0,92,0.00,SCT,,0.00,WeatherDisplay:10.37,2013-09-09 04:30:00,
2013-09-09 05:40:00,49.6,47.4,29.97,SSW,198,0.0,0.0,92,0.00,SCT,,0.00,WeatherDisplay:10.37,2013-09-09 04:40:00,
2013-09-09 05:50:00,49.3,47.1,29.97,NNW,348,0.0,6.0,92,0.00,SCT,,0.00,WeatherDisplay:10.37,2013-09-09 04:50:00,
2013-09-09 06:00:00,48.9,46.7,29.97,North,351,0.0,0.0,92,0.00,SCT,,0.00,WeatherDisplay:10.37,2013-09-09 05:00:00,
2013-09-09 06:10:00,48.7,46.5,30.00,North,351,0.0,0.0,92,0.00,SCT,,0.00,WeatherDisplay:10.37,2013-09-09 05:10:00,
2013-09-09 06:20:00,48.7,46.8,30.00,North,351,0.0,0.0,93,0.00,SCT,,0.00,WeatherDisplay:10.37,2013-09-09 05:20:00,
2013-09-09 06:30:00,48.7,46.8,30.00,North,351,0.0,0.0,93,0.00,SCT,,0.00,WeatherDisplay:10.37,2013-09-09 05:30:00,
2013-09-09 06:40:00,48.7,47.1,30.00,North,351,0.0,0.0,94,0.00,SCT,,0.00,WeatherDisplay:10.37,2013-09-09 05:40:00,
2013-09-09 06:50:00,48.9,47.3,30.00,North,351,0.0,0.0,94,0.00,SCT,,0.00,WeatherDisplay:10.37,2013-09-09 05:50:00,
2013-09-09 07:00:00,49.1,47.4,30.00,North,351,0.0,0.0,94,0.06,RA,,0.06,WeatherDisplay:10.37,2013-09-09 06:00:00,
2013-09-09 07:10:00,49.3,47.9,29.97,North,351,0.0,0.0,95,0.00,SCT,,0.06,WeatherDisplay:10.37,2013-09-09 06:10:00,
2013-09-09 07:20:00,49.5,48.1,29.97,North,351,0.0,0.0,95,0.00,SCT,,0.06,WeatherDisplay:10.37,2013-09-09 06:20:00,
2013-09-09 07:30:00,49.6,48.3,29.97,North,351,0.0,0.0,95,0.00,SCT,,0.06,WeatherDisplay:10.37,2013-09-09 06:30:00,
2013-09-09 07:40:00,49.6,48.3,29.97,North,351,0.0,0.0,95,0.00,SCT,,0.06,WeatherDisplay:10.37,2013-09-09 06:40:00,
2013-09-09 07:50:00,49.8,48.7,29.97,North,351,0.0,0.0,96,0.00,SCT,,0.06,WeatherDisplay:10.37,2013-09-09 06:50:00,
2013-09-09 08:00:00,49.8,48.7,29.97,North,351,0.0,0.0,96,0.00,SCT,,0.06,WeatherDisplay:10.37,2013-09-09 07:00:00,
2013-09-09 08:10:00,49.8,48.7,29.97,North,351,0.0,0.0,96,0.00,SCT,,0.06,WeatherDisplay:10.37,2013-09-09 07:10:00,
2013-09-09 08:20:00,49.8,48.7,29.97,North,351,0.0,0.0,96,0.00,SCT,,0.06,WeatherDisplay:10.37,2013-09-09 07:20:00,
2013-09-09 08:30:00,49.8,48.7,29.97,North,351,0.0,0.0,96,0.06,RA,,0.12,WeatherDisplay:10.37,2013-09-09 07:30:00,
2013-09-09 08:40:00,49.8,48.7,29.97,North,351,0.0,0.0,96,0.00,SCT,,0.12,WeatherDisplay:10.37,2013-09-09 07:40:00,
2013-09-09 08:50:00,50.0,48.9,29.97,North,351,0.0,0.0,96,0.00,SCT,,0.12,WeatherDisplay:10.37,2013-09-09 07:50:00,
2013-09-09 09:00:00,50.0,48.9,29.97,North,351,0.0,0.0,96,0.00,SCT,,0.12,WeatherDisplay:10.37,2013-09-09 08:00:00,
2013-09-09 09:10:00,50.2,49.4,29.97,North,351,0.0,0.0,97,0.06,RA,,0.18,WeatherDisplay:10.37,2013-09-09 08:10:00,
2013-09-09 09:20:00,50.4,49.5,29.97,North,351,0.0,0.0,97,0.00,SCT,,0.18,WeatherDisplay:10.37,2013-09-09 08:20:00,
2013-09-09 09:30:00,50.5,49.7,29.97,North,351,0.0,4.0,97,0.00,SCT,,0.18,WeatherDisplay:10.37,2013-09-09 08:30:00,
2013-09-09 09:40:00,50.7,49.9,29.97,North,351,0.0,0.0,97,0.00,SCT,,0.18,WeatherDisplay:10.37,2013-09-09 08:40:00,
2013-09-09 09:50:00,50.7,49.9,30.00,North,351,0.0,0.0,97,0.00,SCT,,0.18,WeatherDisplay:10.37,2013-09-09 08:50:00,
2013-09-09 10:00:00,50.9,50.1,30.00,North,351,0.0,0.0,97,0.06,RA,,0.24,WeatherDisplay:10.37,2013-09-09 09:00:00,
2013-09-09 10:10:00,51.2,50.4,30.00,North,351,0.0,0.0,97,0.00,SCT,,0.24,WeatherDisplay:10.37,2013-09-09 09:10:00,
2013-09-09 10:20:00,51.3,50.4,29.98,North,351,0.0,4.0,97,0.00,SCT,,0.24,WeatherDisplay:10.37,2013-09-09 09:20:00,
2013-09-09 10:30:00,51.4,50.9,29.97,North,351,0.0,5.0,98,0.00,SCT,,0.24,WeatherDisplay:10.37,2013-09-09 09:30:00,
2013-09-09 10:50:00,52.0,51.4,29.97,North,351,0.0,4.0,98,0.00,SCT,,0.24,WeatherDisplay:10.37,2013-09-09 09:50:00,
2013-09-09 11:00:00,52.0,51.4,29.97,North,351,0.0,0.0,98,0.00,SCT,,0.24,WeatherDisplay:10.37,2013-09-09 10:00:00,
2013-09-09 11:10:00,52.0,51.4,29.97,North,350,0.0,0.0,98,0.00,SCT,,0.24,WeatherDisplay:10.37,2013-09-09 10:10:00,
2013-09-09 11:20:00,52.2,51.6,29.97,North,349,0.0,0.0,98,0.00,SCT,,0.24,WeatherDisplay:10.37,2013-09-09 10:20:00,
2013-09-09 11:30:00,52.3,51.8,29.97,North,353,0.0,5.0,98,0.00,SCT,,0.24,WeatherDisplay:10.37,2013-09-09 10:30:00,
2013-09-09 11:40:00,52.7,52.2,29.97,North,356,0.0,4.0,98,0.00,SCT,,0.24,WeatherDisplay:10.37,2013-09-09 10:40:00,
2013-09-09 11:50:00,52.9,52.3,29.97,NNW,332,0.0,5.0,98,0.00,SCT,,0.24,WeatherDisplay:10.37,2013-09-09 10:50:00,
2013-09-09 12:00:00,53.1,52.5,29.97,NW,304,0.0,4.0,98,0.00,SCT,,0.24,WeatherDisplay:10.37,2013-09-09 11:00:00,
2013-09-09 12:20:00,54.1,53.6,29.97,SW,227,0.0,5.0,98,0.00,SCT,,0.24,WeatherDisplay:10.37,2013-09-09 11:20:00,
2013-09-09 12:30:00,54.3,53.8,29.97,SSW,208,0.0,4.0,98,0.00,SCT,,0.24,WeatherDisplay:10.37,2013-09-09 11:30:00,
2013-09-09 12:40:00,54.1,53.6,29.97,SSW,208,0.0,4.0,98,0.00,SCT,,0.24,WeatherDisplay:10.37,2013-09-09 11:40:00,
2013-09-09 12:50:00,54.1,53.6,29.97,SSW,208,0.0,6.0,98,0.00,SCT,,0.24,WeatherDisplay:10.37,2013-09-09 11:50:00,
2013-09-09 13:00:00,54.0,53.4,29.97,SSW,208,0.0,0.0,98,0.00,SCT,,0.24,WeatherDisplay:10.37,2013-09-09 12:00:00,
2013-09-09 13:10:00,54.0,53.4,29.97,SSW,208,0.0,0.0,98,0.00,SCT,,0.24,WeatherDisplay:10.37,2013-09-09 12:10:00,
2013-09-09 13:20:00,54.0,53.4,29.97,SSW,208,0.0,0.0,98,0.00,SCT,,0.24,WeatherDisplay:10.37,2013-09-09 12:20:00,
2013-09-09 13:30:00,53.8,53.2,29.97,SSW,208,0.0,0.0,98,0.00,SCT,,0.24,WeatherDisplay:10.37,2013-09-09 12:30:00,
2013-09-09 13:40:00,53.8,53.2,29.97,SSW,208,0.0,0.0,98,0.00,SCT,,0.24,WeatherDisplay:10.37,2013-09-09 12:40:00,
2013-09-09 13:50:00,53.8,53.2,29.97,SSW,208,0.0,0.0,98,0.00,SCT,,0.24,WeatherDisplay:10.37,2013-09-09 12:50:00,
2013-09-09 14:00:00,53.5,53.0,29.97,SSW,208,0.0,0.0,98,0.00,SCT,,0.24,WeatherDisplay:10.37,2013-09-09 13:00:00,
2013-09-09 14:10:00,53.2,52.4,29.97,SSW,208,0.0,0.0,97,0.00,SCT,,0.24,WeatherDisplay:10.37,2013-09-09 13:10:00,
2013-09-09 14:20:00,53.1,52.2,29.97,SSW,208,0.0,0.0,97,0.00,SCT,,0.24,WeatherDisplay:10.37,2013-09-09 13:20:00,
2013-09-09 14:30:00,52.9,52.0,29.97,SSW,208,0.0,0.0,97,0.06,RA,,0.29,WeatherDisplay:10.37,2013-09-09 13:30:00,
2013-09-09 14:40:00,52.9,52.3,29.97,SSW,210,0.0,5.0,98,0.00,SCT,,0.29,WeatherDisplay:10.37,2013-09-09 13:40:00,
2013-09-09 14:50:00,52.7,52.2,29.97,SSW,211,0.0,5.0,98,0.00,SCT,,0.29,WeatherDisplay:10.37,2013-09-09 13:50:00,
2013-09-09 15:00:00,52.7,52.2,29.97,SSW,211,0.0,0.0,98,0.00,SCT,,0.29,WeatherDisplay:10.37,2013-09-09 14:00:00,
2013-09-09 15:10:00,52.7,52.2,29.97,SSW,211,0.0,0.0,98,0.00,SCT,,0.29,WeatherDisplay:10.37,2013-09-09 14:10:00,
2013-09-09 15:20:00,52.7,52.2,29.97,SW,222,0.0,0.0,98,0.00,SCT,,0.29,WeatherDisplay:10.37,2013-09-09 14:20:00,
2013-09-09 15:30:00,52.7,52.2,29.97,SW,223,0.0,0.0,98,0.00,SCT,,0.29,WeatherDisplay:10.37,2013-09-09 14:30:00,
2013-09-09 15:40:00,52.7,52.2,29.97,SW,223,0.0,0.0,98,0.00,SCT,,0.29,WeatherDisplay:10.37,2013-09-09 14:40:00,
2013-09-09 15:50:00,53.2,52.6,29.97,SW,223,0.0,0.0,98,0.00,SCT,,0.29,WeatherDisplay:10.37,2013-09-09 14:50:00,
2013-09-09 16:00:00,53.8,53.2,29.97,SW,223,0.0,0.0,98,0.00,SCT,,0.29,WeatherDisplay:10.37,2013-09-09 15:00:00,
2013-09-09 16:10:00,54.4,53.8,29.97,SW,223,0.0,0.0,98,0.00,SCT,,0.29,WeatherDisplay:10.37,2013-09-09 15:10:00,
2013-09-09 16:20:00,54.9,54.3,29.97,SW,223,0.0,0.0,98,0.00,SCT,,0.29,WeatherDisplay:10.37,2013-09-09 15:20:00,
2013-09-09 16:30:00,54.9,54.3,29.97,SW,223,0.0,0.0,98,0.00,SCT,,0.29,WeatherDisplay:10.37,2013-09-09 15:30:00,
2013-09-09 16:40:00,54.5,53.9,29.97,SW,223,0.0,0.0,98,0.00,SCT,,0.29,WeatherDisplay:10.37,2013-09-09 15:40:00,
2013-09-09 16:50:00,55.0,54.5,29.97,SW,222,0.0,7.0,98,0.00,SCT,,0.29,WeatherDisplay:10.37,2013-09-09 15:50:00,
2013-09-09 17:00:00,55.4,54.8,29.97,SW,224,3.0,8.0,98,0.00,SCT,,0.29,WeatherDisplay:10.37,2013-09-09 16:00:00,
2013-09-09 17:10:00,55.8,55.2,29.97,SW,217,3.0,7.0,98,0.00,SCT,,0.29,WeatherDisplay:10.37,2013-09-09 16:10:00,
2013-09-09 17:20:00,55.8,55.2,29.97,SSW,207,0.0,0.0,98,0.00,SCT,,0.29,WeatherDisplay:10.37,2013-09-09 16:20:00,
2013-09-09 17:30:00,55.6,55.0,29.97,SSW,207,0.0,0.0,98,0.00,SCT,,0.29,WeatherDisplay:10.37,2013-09-09 16:30:00,
2013-09-09 17:40:00,55.8,55.2,29.97,SSW,207,0.0,0.0,98,0.00,SCT,,0.29,WeatherDisplay:10.37,2013-09-09 16:40:00,
2013-09-09 17:50:00,55.6,55.0,29.97,WSW,246,0.0,8.0,98,0.00,SCT,,0.29,WeatherDisplay:10.37,2013-09-09 16:50:00,
2013-09-09 18:00:00,55.4,54.8,29.97,WSW,247,0.0,6.0,98,0.00,SCT,,0.29,WeatherDisplay:10.37,2013-09-09 17:00:00,
2013-09-09 18:10:00,54.8,54.2,29.97,NNW,328,3.0,8.0,98,0.12,RA,,0.41,WeatherDisplay:10.37,2013-09-09 17:10:00,
2013-09-09 18:20:00,53.0,52.5,30.00,NNE,12,0.0,9.0,98,0.00,SCT,,0.41,WeatherDisplay:10.37,2013-09-09 17:20:00,
2013-09-09 18:30:00,51.8,51.3,30.00,NNE,13,0.0,0.0,98,0.00,SCT,,0.41,WeatherDisplay:10.37,2013-09-09 17:30:00,
2013-09-09 18:40:00,51.4,50.9,29.97,NNE,13,0.0,0.0,98,0.00,SCT,,0.41,WeatherDisplay:10.37,2013-09-09 17:40:00,
2013-09-09 18:50:00,51.4,50.9,29.97,NNE,13,0.0,0.0,98,0.00,SCT,,0.41,WeatherDisplay:10.37,2013-09-09 17:50:00,
2013-09-09 19:00:00,51.3,50.7,29.97,NNE,13,0.0,0.0,98,0.00,SCT,,0.41,WeatherDisplay:10.37,2013-09-09 18:00:00,
2013-09-09 19:10:00,51.3,50.7,29.97,NNE,13,0.0,0.0,98,0.00,SCT,,0.41,WeatherDisplay:10.37,2013-09-09 18:10:00,
2013-09-09 19:20:00,51.3,50.7,29.97,NNE,13,0.0,0.0,98,0.00,SCT,,0.41,WeatherDisplay:10.37,2013-09-09 18:20:00,
2013-09-09 19:30:00,51.3,50.7,29.97,NNE,13,0.0,4.0,98,0.00,SCT,,0.41,WeatherDisplay:10.37,2013-09-09 18:30:00,
2013-09-09 19:40:00,51.3,50.7,29.97,North,10,0.0,5.0,98,0.00,SCT,,0.41,WeatherDisplay:10.37,2013-09-09 18:40:00,
2013-09-09 19:50:00,51.1,50.5,30.00,NNW,334,0.0,4.0,98,0.00,SCT,,0.41,WeatherDisplay:10.37,2013-09-09 18:50:00,
2013-09-09 20:00:00,50.9,50.4,30.00,West,273,0.0,5.0,98,0.00,SCT,,0.41,WeatherDisplay:10.37,2013-09-09 19:00:00,
2013-09-09 20:10:00,50.5,50.0,30.00,WSW,257,0.0,6.0,98,0.00,SCT,,0.41,WeatherDisplay:10.37,2013-09-09 19:10:00,
2013-09-09 20:20:00,50.5,50.0,30.00,West,266,0.0,6.0,98,0.00,SCT,,0.41,WeatherDisplay:10.37,2013-09-09 19:20:00,
2013-09-09 20:30:00,50.4,49.8,30.00,WSW,242,0.0,7.0,98,0.00,SCT,,0.41,WeatherDisplay:10.37,2013-09-09 19:30:00,
2013-09-09 20:40:00,50.2,49.6,30.00,WSW,247,0.0,5.0,98,0.00,SCT,,0.41,WeatherDisplay:10.37,2013-09-09 19:40:00,
2013-09-09 20:50:00,50.2,49.6,30.00,West,266,0.0,5.0,98,0.00,SCT,,0.41,WeatherDisplay:10.37,2013-09-09 19:50:00,
2013-09-09 21:00:00,50.4,49.8,30.00,West,269,0.0,0.0,98,0.00,SCT,,0.41,WeatherDisplay:10.37,2013-09-09 20:00:00,
2013-09-09 21:10:00,50.4,49.8,30.00,West,266,0.0,0.0,98,0.00,SCT,,0.41,WeatherDisplay:10.37,2013-09-09 20:10:00,
2013-09-09 21:20:00,50.4,49.8,30.00,West,265,0.0,4.0,98,0.00,SCT,,0.41,WeatherDisplay:10.37,2013-09-09 20:20:00,
2013-09-09 21:30:00,50.4,49.8,30.00,West,271,0.0,4.0,98,0.00,SCT,,0.41,WeatherDisplay:10.37,2013-09-09 20:30:00,
2013-09-09 21:40:00,50.4,49.8,30.00,West,269,0.0,0.0,98,0.00,SCT,,0.41,WeatherDisplay:10.37,2013-09-09 20:40:00,
2013-09-09 21:50:00,50.2,49.7,30.00,WNW,282,0.0,7.0,98,0.00,SCT,,0.41,WeatherDisplay:10.37,2013-09-09 20:50:00,
2013-09-09 22:00:00,50.2,49.6,30.00,WNW,286,0.0,0.0,98,0.00,SCT,,0.41,WeatherDisplay:10.37,2013-09-09 21:00:00,
2013-09-09 22:10:00,50.0,49.5,30.00,WSW,240,0.0,6.0,98,0.00,SCT,,0.41,WeatherDisplay:10.37,2013-09-09 21:10:00,
2013-09-09 22:20:00,49.8,49.3,30.00,WNW,282,0.0,7.0,98,0.00,SCT,,0.41,WeatherDisplay:10.37,2013-09-09 21:20:00,
2013-09-09 22:30:00,49.8,49.3,30.00,West,266,0.0,9.0,98,0.00,SCT,,0.41,WeatherDisplay:10.37,2013-09-09 21:30:00,
2013-09-09 22:40:00,49.8,49.3,30.00,West,261,0.0,0.0,98,0.00,SCT,,0.41,WeatherDisplay:10.37,2013-09-09 21:40:00,
2013-09-09 22:50:00,49.8,49.3,30.02,West,262,0.0,6.0,98,0.00,SCT,,0.41,WeatherDisplay:10.37,2013-09-09 21:50:00,
2013-09-09 23:00:00,49.6,49.1,30.03,WSW,252,0.0,5.0,98,0.00,SCT,,0.41,WeatherDisplay:10.37,2013-09-09 22:00:00,
2013-09-09 23:10:00,49.6,49.1,30.03,WSW,242,0.0,7.0,98,0.00,SCT,,0.41,WeatherDisplay:10.37,2013-09-09 22:10:00,
2013-09-09 23:20:00,49.5,48.9,30.03,WSW,256,0.0,7.0,98,0.00,SCT,,0.41,WeatherDisplay:10.37,2013-09-09 22:20:00,
2013-09-09 23:30:00,49.5,48.9,30.03,West,265,0.0,6.0,98,0.00,SCT,,0.41,WeatherDisplay:10.37,2013-09-09 22:30:00,
2013-09-09 23:40:00,49.3,48.7,30.03,West,263,0.0,0.0,98,0.00,SCT,,0.41,WeatherDisplay:10.37,2013-09-09 22:40:00,
2013-09-09 23:50:00,49.3,48.7,30.03,West,278,0.0,5.0,98,0.00,SCT,,0.41,WeatherDisplay:10.37,2013-09-09 22:50:00,